Satellite-Ground Cal/Val Region Overpasses Predictions

Prediction of Satellite NPP Overpassing Cal/Val Region: PacNW

Region Location: (Latitude: 10.00, Longitude: 139.50) to (Latitude: 22.70, Longitude: 165.60).

Table of predicted overpasses for the next 14.0 days since TLE Epoch: 3/25/2025
Interval Starting Time Starting Location Ending Time Ending Location
1 03/25/2025 03:17:35 ( 10.01, 150.49) 03/25/2025 03:21:11 ( 22.68, 147.46)
2 03/25/2025 15:49:28 ( 22.64, 147.73) 03/25/2025 15:53:03 ( 10.02, 144.72)
3 03/26/2025 02:58:32 ( 10.03, 155.25) 03/26/2025 03:02:07 ( 22.65, 152.24)
4 03/26/2025 15:30:24 ( 22.68, 152.50) 03/26/2025 15:33:59 ( 10.06, 149.50)
5 03/27/2025 02:39:28 ( 10.05, 160.01) 03/27/2025 02:43:03 ( 22.67, 157.00)
6 03/27/2025 15:11:20 ( 22.65, 157.27) 03/27/2025 15:14:55 ( 10.03, 154.26)
7 03/28/2025 02:20:24 ( 10.02, 164.79) 03/28/2025 02:24:00 ( 22.70, 161.77)
8 03/28/2025 14:52:16 ( 22.68, 162.04) 03/28/2025 14:55:52 ( 10.00, 159.02)
9 03/29/2025 03:42:49 ( 10.00, 144.19) 03/29/2025 03:46:25 ( 22.68, 141.17)
10 03/29/2025 14:34:36 ( 17.72, 165.60) 03/29/2025 14:36:47 ( 10.03, 163.80)
11 03/29/2025 16:14:41 ( 22.69, 141.44) 03/29/2025 16:16:57 ( 14.71, 139.51)
12 03/30/2025 03:23:46 ( 10.04, 148.95) 03/30/2025 03:27:21 ( 22.66, 145.94)
13 03/30/2025 15:55:38 ( 22.66, 146.20) 03/30/2025 15:59:13 ( 10.04, 143.19)
14 03/31/2025 03:04:41 ( 10.01, 153.72) 03/31/2025 03:08:17 ( 22.69, 150.70)
15 03/31/2025 15:36:33 ( 22.68, 150.98) 03/31/2025 15:40:08 ( 10.06, 147.97)
16 04/01/2025 02:45:38 ( 10.05, 158.48) 04/01/2025 02:49:13 ( 22.67, 155.48)
17 04/01/2025 15:17:29 ( 22.70, 155.75) 04/01/2025 15:21:05 ( 10.02, 152.73)
18 04/02/2025 02:26:34 ( 10.03, 163.26) 04/02/2025 02:30:09 ( 22.65, 160.25)
19 04/02/2025 14:58:25 ( 22.65, 160.51) 04/02/2025 15:02:00 ( 10.03, 157.50)
20 04/03/2025 02:10:25 ( 20.35, 165.59) 04/03/2025 02:11:05 ( 22.70, 165.01)
21 04/03/2025 03:48:59 ( 10.03, 142.65) 04/03/2025 03:52:34 ( 22.66, 139.65)
22 04/03/2025 14:39:21 ( 22.67, 165.28) 04/03/2025 14:42:56 ( 10.04, 162.28)
23 04/03/2025 16:20:51 ( 22.65, 139.91) 04/03/2025 16:21:18 ( 21.07, 139.51)
24 04/04/2025 03:29:55 ( 10.02, 147.43) 04/04/2025 03:33:30 ( 22.65, 144.42)
25 04/04/2025 16:01:46 ( 22.66, 144.68) 04/04/2025 16:05:21 ( 10.04, 141.67)
26 04/05/2025 03:10:50 ( 10.02, 152.20) 04/05/2025 03:14:26 ( 22.70, 149.18)
27 04/05/2025 15:42:42 ( 22.67, 149.45) 04/05/2025 15:46:17 ( 10.04, 146.44)
28 04/06/2025 02:51:46 ( 10.01, 156.97) 04/06/2025 02:55:22 ( 22.69, 153.95)
29 04/06/2025 15:23:37 ( 22.67, 154.22) 04/06/2025 15:27:12 ( 10.05, 151.21)
30 04/07/2025 02:32:41 ( 10.01, 161.74) 04/07/2025 02:36:17 ( 22.69, 158.72)
